Weather History for Newport, RI

Change the Weather History Date:

Sunday, July 21, 2013

  Actual Average Record
Temperature  
Mean Temperature 74 °F -  
Max Temperature 81 °F 78 °F 93 °F (1991)
Min Temperature 68 °F 64 °F 50 °F (1978)
Cooling Degree Days 9    
Growing Degree Days 24 (Base 50)    
Moisture  
Dew Point 66 °F    
Average Humidity 79    
Maximum Humidity 96    
Minimum Humidity 56    
Precipitation  
Precipitation 0.07 in - - ()
Sea Level Pressure  
Sea Level Pressure 29.92 in    
Wind  
Wind Speed 4 mph (South)    
Max Wind Speed 7 mph    
Max Gust Speed -    
Visibility 9 miles    
Events Rain , Thunderstorm    
Averages and records for this station are not official NWS values.
T = Trace of Precipitation, MM = Missing Value Source: NWS Daily Summary

Daily Weather History Graph

Daily Weather History Graph

Search for Another Location

Airport:

Trip Planner

Search our weather history database for the weather conditions in past years. The results will help you decide how hot, cold, wet, or windy it might be!

Date:

Astronomy

Jul. 21, 2013 Rise Set
Actual Time 5:29 AM EDT 8:13 PM EDT
Civil Twilight 4:57 AM EDT 8:45 PM EDT
Nautical Twilight 4:16 AM EDT 9:25 PM EDT
Astronomical Twilight 3:30 AM EDT 10:11 PM EDT
Moon 7:07 PM EDT (7/21) 4:12 AM EDT (7/21)
Length of Visible Light 15h 48m
Length of Day
14h 43m
Waxing Gibbous, 98% of the Moon is Illuminated
Jul 21
Waxing Gibbous
Jul 22
Full
Jul 29
Last Quarter
Aug 6
New
Aug 14
First Quarter

Hourly Weather History & Observations

Time (EDT) Temp. Heat Index Dew Point Humidity Pressure Visibility Wind Dir Wind Speed Gust Speed Precip Events Conditions
12:53 AM 75.0 °F - 70.0 °F 84% 29.82 in 9.0 mi WNW 4.6 mph - N/A   Scattered Clouds
1:53 AM 75.0 °F - 66.9 °F 76% 29.83 in 10.0 mi WNW 4.6 mph - N/A   Scattered Clouds
2:53 AM 73.0 °F - 64.9 °F 76% 29.84 in 10.0 mi NW 4.6 mph - N/A   Scattered Clouds
3:53 AM 72.0 °F - 64.0 °F 76% 29.84 in 10.0 mi Calm Calm - N/A   Mostly Cloudy
4:53 AM 70.0 °F - 64.9 °F 84% 29.86 in 10.0 mi North 4.6 mph - 0.01 in   Mostly Cloudy
5:38 AM 68.0 °F - 64.4 °F 88% 29.90 in 6.0 mi SSW 5.8 mph - 0.01 in Rain , Thunderstorm Light Thunderstorms and Rain
5:53 AM 69.1 °F - 66.0 °F 90% 29.88 in 10.0 mi ESE 3.5 mph - 0.02 in Rain Light Rain
6:53 AM 70.0 °F - 66.0 °F 87% 29.90 in 10.0 mi North 3.5 mph - 0.00 in   Overcast
7:53 AM 73.9 °F - 66.9 °F 79% 29.90 in 10.0 mi Calm Calm - N/A   Mostly Cloudy
8:53 AM 73.9 °F - 64.0 °F 71% 29.94 in 10.0 mi North 4.6 mph - N/A   Mostly Cloudy
9:32 AM 69.8 °F - 66.2 °F 88% 29.93 in 2.0 mi ENE 5.8 mph - 0.04 in Rain Heavy Rain
9:41 AM 71.6 °F - 66.2 °F 83% 29.93 in 8.0 mi East 3.5 mph - 0.04 in Rain Light Rain
9:53 AM 71.1 °F - 66.9 °F 87% 29.93 in 10.0 mi Calm Calm - 0.04 in   Mostly Cloudy
10:21 AM 71.6 °F - 68.0 °F 88% 29.96 in 10.0 mi SSW 6.9 mph - 0.00 in Rain , Thunderstorm Light Rain
10:46 AM 69.8 °F - 64.4 °F 83% 29.95 in 10.0 mi Variable 3.5 mph - 0.00 in Rain Light Rain
10:53 AM 70.0 °F - 64.9 °F 84% 29.95 in 10.0 mi South 5.8 mph - 0.00 in   Mostly Cloudy
11:53 AM 73.0 °F - 64.0 °F 73% 29.95 in 10.0 mi Calm Calm - N/A   Overcast
12:53 PM 75.9 °F - 64.0 °F 67% 29.95 in 10.0 mi Calm Calm - N/A   Scattered Clouds
1:53 PM 78.1 °F - 64.0 °F 62% 29.95 in 10.0 mi NW 5.8 mph - N/A   Mostly Cloudy
2:53 PM 80.1 °F 81.5 °F 63.0 °F 56% 29.95 in 10.0 mi SW 3.5 mph - N/A   Clear
3:53 PM 78.1 °F - 66.0 °F 66% 29.95 in 10.0 mi South 5.8 mph - N/A   Clear
4:53 PM 77.0 °F - 64.9 °F 66% 29.94 in 10.0 mi South 5.8 mph - N/A   Clear
5:53 PM 77.0 °F - 64.9 °F 66% 29.94 in 10.0 mi South 5.8 mph - N/A   Clear
6:53 PM 75.0 °F - 64.9 °F 71% 29.95 in 10.0 mi South 5.8 mph - N/A   Clear
7:53 PM 72.0 °F - 66.0 °F 81% 29.95 in 10.0 mi South 3.5 mph - N/A   Clear
8:53 PM 71.1 °F - 68.0 °F 90% 29.96 in 7.0 mi Calm Calm - N/A   Clear
9:53 PM 70.0 °F - 68.0 °F 93% 29.99 in 9.0 mi SSE 3.5 mph - N/A   Clear
10:53 PM 69.1 °F - 68.0 °F 96% 29.99 in 8.0 mi Calm Calm - N/A   Clear
11:53 PM 69.1 °F - 66.9 °F 93% 29.99 in 7.0 mi SE 4.6 mph - N/A   Clear